Location: Kumla
(59.1265°N, 15.1401°E)
Time: 06:44:42
(UTC+01:00)

Vanguard 2 Rocket - Pass Details

Date: 04 December 2023
Orbit: 555 x 3309 km, 32.9° (Epoch: 03 March)

Event Time Altitude Azimuth Distance (km) Brightness Sun altitude
Rises 17:34:01 0° 248° (WSW) 7,120 13.2 -17.0°
Reaches altitude 10° 17:39:50 10° 238° (WSW) 6,234 12.3 -17.8°
Maximum altitude 17:54:32 27° 191° (S) 4,786 10.7 -19.6°
Drops below altitude 10° 18:07:19 10° 143° (SE) 5,386 10.5 -21.2°
Enters shadow 18:11:48 - 132° (SE) 6,021 10.7 -21.8°
Sets 18:11:51 0° 132° (SE) 6,028 - -21.8°
